When you browse on this site, cookies collect data to enhance your experience and personalize the content and advertising you see.
Visit our Privacy Policy to learn more. By continuing to use the site, you agree to this use of cookies and data.
  • In Netherlands
  • List of Countries
  • For 7 days
  • Water Temperature
  • Weather Map
  • Weather Widgets
  • user-avatar
    Login

    Hourly Weather Idzhewan

    Today, 6 June, Saturday

    Time Temperature Precipitation Wind Pressure Humidity
    00:00 +15°C° 0 mm 2 mps 695 mmHg 77%
    01:00 +15°C° 0.2 mm 2 mps 695 mmHg 78%
    02:00 +15°C° 0.2 mm 1 mps 695 mmHg 78%
    03:00 +14°C° 0 mm 1 mps 695 mmHg 79%
    04:00 +15°C° 0 mm 1 mps 695 mmHg 79%
    05:00 +16°C° 0 mm 1 mps 696 mmHg 79%
    06:00 +18°C° 0 mm 1 mps 696 mmHg 80%
    07:00 +19°C° 0 mm 1 mps 696 mmHg 74%
    08:00 +21°C° 0 mm 1 mps 696 mmHg 68%
    09:00 +21°C° 0 mm 2 mps 697 mmHg 62%
    10:00 +23°C° 0 mm 2 mps 696 mmHg 60%
    11:00 +24°C° 0 mm 2 mps 696 mmHg 57%
    12:00 +24°C° 0 mm 2 mps 696 mmHg 55%
    13:00 +25°C° 0.1 mm 2 mps 696 mmHg 53%
    14:00 +25°C° 0.1 mm 2 mps 696 mmHg 52%
    15:00 +25°C° 0.1 mm 2 mps 696 mmHg 51%
    16:00 +25°C° 0 mm 1 mps 696 mmHg 56%
    17:00 +24°C° 0 mm 1 mps 696 mmHg 61%
    18:00 +24°C° 0 mm 1 mps 696 mmHg 66%
    19:00 +22°C° 0 mm 1 mps 696 mmHg 68%
    20:00 +20°C° 0 mm 1 mps 696 mmHg 70%
    21:00 +17°C° 0 mm 2 mps 696 mmHg 72%
    22:00 +16°C° 0 mm 2 mps 696 mmHg 70%
    23:00 +16°C° 0 mm 2 mps 696 mmHg 68%

    Tomorrow, 7 June, Sunday

    Time Temperature Precipitation Wind Pressure Humidity
    00:00 +16°C° 0 mm 2 mps 696 mmHg 67%
    01:00 +15°C° 0 mm 2 mps 696 mmHg 65%
    02:00 +15°C° 0 mm 2 mps 696 mmHg 64%
    03:00 +15°C° 0 mm 2 mps 695 mmHg 63%
    04:00 +15°C° 0 mm 2 mps 695 mmHg 65%
    05:00 +16°C° 0 mm 2 mps 696 mmHg 67%
    06:00 +17°C° 0 mm 2 mps 696 mmHg 69%
    07:00 +19°C° 0 mm 2 mps 696 mmHg 65%
    08:00 +21°C° 0 mm 2 mps 696 mmHg 60%
    09:00 +23°C° 0 mm 1 mps 696 mmHg 56%
    10:00 +24°C° 0 mm 2 mps 696 mmHg 56%
    11:00 +25°C° 0 mm 2 mps 696 mmHg 56%
    12:00 +26°C° 0 mm 2 mps 695 mmHg 56%
    13:00 +26°C° 0 mm 2 mps 695 mmHg 57%
    14:00 +27°C° 0 mm 2 mps 695 mmHg 59%
    15:00 +27°C° 0 mm 2 mps 694 mmHg 60%
    16:00 +26°C° 0 mm 2 mps 694 mmHg 64%
    17:00 +26°C° 0 mm 2 mps 694 mmHg 69%
    18:00 +25°C° 0 mm 1 mps 694 mmHg 73%
    19:00 +23°C° 0 mm 1 mps 694 mmHg 77%
    20:00 +21°C° 0 mm 1 mps 694 mmHg 81%
    21:00 +20°C° 0 mm 1 mps 694 mmHg 85%
    22:00 +19°C° 0 mm 1 mps 694 mmHg 86%
    23:00 +19°C° 0 mm 1 mps 694 mmHg 87%

    Day after tomorrow, 8 June, Monday

    Time Temperature Precipitation Wind Pressure Humidity
    00:00 +19°C° 0 mm 1 mps 694 mmHg 87%
    01:00 +19°C° 0 mm 1 mps 694 mmHg 88%
    02:00 +18°C° 0 mm 1 mps 694 mmHg 88%
    03:00 +18°C° 0 mm 1 mps 693 mmHg 89%
    04:00 +19°C° 0 mm 1 mps 693 mmHg 87%
    05:00 +19°C° 0 mm 1 mps 694 mmHg 86%
    06:00 +20°C° 0 mm 1 mps 694 mmHg 84%
    07:00 +22°C° 0 mm 1 mps 694 mmHg 79%
    08:00 +23°C° 0 mm 1 mps 694 mmHg 74%
    09:00 +24°C° 0 mm 2 mps 694 mmHg 69%
    10:00 +25°C° 0 mm 2 mps 693 mmHg 68%
    11:00 +26°C° 0 mm 2 mps 693 mmHg 67%
    12:00 +26°C° 0 mm 2 mps 693 mmHg 65%
    13:00 +27°C° 0.1 mm 2 mps 693 mmHg 65%
    14:00 +27°C° 0.1 mm 2 mps 692 mmHg 64%
    15:00 +27°C° 0.1 mm 2 mps 692 mmHg 64%
    16:00 +27°C° 0.1 mm 2 mps 692 mmHg 67%
    17:00 +26°C° 0.1 mm 1 mps 692 mmHg 70%
    18:00 +26°C° 0.1 mm 1 mps 692 mmHg 74%
    19:00 +24°C° 0.2 mm 1 mps 692 mmHg 76%
    20:00 +22°C° 0.2 mm 1 mps 692 mmHg 79%
    21:00 +20°C° 0.2 mm 1 mps 692 mmHg 82%
    22:00 +20°C° 0 mm 1 mps 692 mmHg 82%
    23:00 +19°C° 0 mm 1 mps 692 mmHg 82%

    9 June, Tuesday

    Time Temperature Precipitation Wind Pressure Humidity
    00:00 +19°C° 0 mm 1 mps 692 mmHg 82%
    01:00 +19°C° 0 mm 1 mps 692 mmHg 82%
    02:00 +18°C° 0 mm 1 mps 692 mmHg 82%
    03:00 +18°C° 0 mm 1 mps 692 mmHg 83%
    04:00 +19°C° 0 mm 1 mps 692 mmHg 82%
    05:00 +19°C° 0 mm 1 mps 692 mmHg 81%
    06:00 +20°C° 0 mm 1 mps 693 mmHg 80%
    07:00 +22°C° 0 mm 1 mps 693 mmHg 75%
    08:00 +23°C° 0 mm 1 mps 693 mmHg 70%
    09:00 +25°C° 0 mm 2 mps 693 mmHg 65%
    10:00 +26°C° 0 mm 2 mps 693 mmHg 64%
    11:00 +26°C° 0 mm 2 mps 693 mmHg 64%
    12:00 +27°C° 0 mm 3 mps 693 mmHg 63%
    13:00 +27°C° 0.1 mm 2 mps 692 mmHg 64%
    14:00 +27°C° 0.1 mm 2 mps 692 mmHg 64%
    15:00 +27°C° 0.1 mm 2 mps 692 mmHg 64%
    16:00 +27°C° 0.3 mm 2 mps 692 mmHg 67%
    17:00 +26°C° 0.3 mm 2 mps 692 mmHg 70%
    18:00 +26°C° 0.3 mm 1 mps 692 mmHg 72%
    19:00 +24°C° 0.4 mm 1 mps 692 mmHg 74%
    20:00 +22°C° 0.4 mm 1 mps 693 mmHg 76%
    21:00 +20°C° 0.4 mm 1 mps 693 mmHg 79%
    22:00 +19°C° 0.4 mm 2 mps 693 mmHg 78%
    23:00 +19°C° 0.4 mm 2 mps 693 mmHg 78%

    10 June, Wednesday

    Time Temperature Precipitation Wind Pressure Humidity
    00:00 +19°C° 0.4 mm 2 mps 693 mmHg 77%
    01:00 +19°C° 0 mm 2 mps 693 mmHg 77%
    02:00 +18°C° 0 mm 2 mps 693 mmHg 77%
    03:00 +18°C° 0 mm 2 mps 693 mmHg 77%
    04:00 +19°C° 0 mm 1 mps 693 mmHg 77%
    05:00 +20°C° 0 mm 1 mps 693 mmHg 77%
    06:00 +21°C° 0 mm 1 mps 693 mmHg 77%
    07:00 +23°C° 0 mm 1 mps 693 mmHg 71%
    08:00 +24°C° 0 mm 1 mps 693 mmHg 65%
    09:00 +26°C° 0 mm 1 mps 694 mmHg 60%
    10:00 +27°C° 0.2 mm 2 mps 694 mmHg 60%
    11:00 +28°C° 0.2 mm 2 mps 694 mmHg 60%
    12:00 +28°C° 0.2 mm 2 mps 694 mmHg 60%
    13:00 +28°C° 0.3 mm 2 mps 693 mmHg 61%
    14:00 +29°C° 0.3 mm 2 mps 693 mmHg 61%
    15:00 +29°C° 0.3 mm 2 mps 693 mmHg 62%
    16:00 +28°C° 0.6 mm 2 mps 693 mmHg 66%
    17:00 +27°C° 0.6 mm 1 mps 693 mmHg 70%
    18:00 +27°C° 0.6 mm 1 mps 693 mmHg 73%
    19:00 +25°C° 0.1 mm 1 mps 693 mmHg 75%
    20:00 +23°C° 0.1 mm 1 mps 693 mmHg 76%
    21:00 +22°C° 0.1 mm 1 mps 694 mmHg 77%
    22:00 +21°C° 0 mm 2 mps 694 mmHg 76%
    23:00 +20°C° 0 mm 2 mps 693 mmHg 75%

    11 June, Thursday

    Time Temperature Precipitation Wind Pressure Humidity
    00:00 +20°C° 0 mm 2 mps 693 mmHg 75%
    01:00 +20°C° 0 mm 2 mps 693 mmHg 75%
    02:00 +19°C° 0 mm 2 mps 693 mmHg 76%
    03:00 +20°C° 0 mm 1 mps 692 mmHg 76%
    04:00 +21°C° 0 mm 1 mps 693 mmHg 77%
    05:00 +21°C° 0 mm 1 mps 693 mmHg 77%
    06:00 +22°C° 0 mm 1 mps 693 mmHg 77%
    07:00 +23°C° 0 mm 1 mps 693 mmHg 73%
    08:00 +25°C° 0 mm 1 mps 693 mmHg 68%
    09:00 +26°C° 0 mm 2 mps 693 mmHg 64%
    10:00 +27°C° 0.2 mm 2 mps 693 mmHg 63%
    11:00 +28°C° 0.2 mm 2 mps 693 mmHg 63%
    12:00 +28°C° 0.2 mm 2 mps 692 mmHg 62%
    13:00 +28°C° 0.4 mm 2 mps 692 mmHg 63%
    14:00 +28°C° 0.4 mm 2 mps 691 mmHg 63%
    15:00 +28°C° 0.4 mm 2 mps 691 mmHg 64%
    16:00 +27°C° 0.6 mm 2 mps 691 mmHg 67%
    17:00 +27°C° 0.6 mm 1 mps 691 mmHg 70%
    18:00 +26°C° 0.6 mm 1 mps 691 mmHg 72%
    19:00 +25°C° 0.2 mm 1 mps 692 mmHg 72%
    20:00 +24°C° 0.2 mm 1 mps 692 mmHg 72%
    21:00 +21°C° 0.2 mm 2 mps 692 mmHg 72%
    22:00 +21°C° 0.1 mm 2 mps 692 mmHg 72%
    23:00 +20°C° 0.1 mm 2 mps 692 mmHg 72%
    Show more